Location: Ballingbuur
(53.0000°N, 5.7667°E)
Time: 14:28:09
(UTC+00:00)

Cosmos 2112 Rocket - Visible Passes

Search period start: 12 April 2021 00:00
Search period end: 22 April 2021 00:00
Orbit: 756 x 787 km, 74.0° (Epoch: 11 April)

Date Brightness Start Highest point End Pass type
(mag) Time Alt. Az. Time Alt. Az. Time Alt. Az.
12 Apr 7.3 00:22:31 10° NNE 00:23:45 11° NNE 00:24:59 10° NE visible
12 Apr 5.9 02:02:57 10° NNW 02:07:41 32° NE 02:12:25 10° ESE visible
12 Apr 4.1 03:44:58 10° NNW 03:50:08 55° WSW 03:55:19 10° S visible
12 Apr 7.0 20:13:59 10° WNW 20:17:20 17° NW 20:20:42 10° N visible
13 Apr 6.4 01:27:08 10° N 01:31:22 24° NE 01:35:37 10° E visible
13 Apr 4.0 03:08:52 10° NNW 03:14:11 83° WSW 03:19:31 10° SSE visible
13 Apr 6.8 19:36:52 10° W 19:40:54 22° NW 19:44:58 10° N visible
14 Apr 6.7 00:51:23 10° N 00:54:59 18° NE 00:58:34 10° E visible
14 Apr 4.4 02:32:52 10° NNW 02:38:09 68° ENE 02:43:27 10° SE visible
14 Apr 7.5 20:48:02 10° NNW 20:48:36 10° NNW 20:49:09 10° NNW visible
15 Apr 7.0 00:15:45 10° N 00:18:29 14° NNE 00:21:13 10° ENE visible
15 Apr 5.1 01:56:55 10° NNW 02:02:02 46° NE 02:07:09 10° SE visible
15 Apr 4.6 03:39:18 10° NW 03:44:04 35° WSW 03:48:51 10° SSW visible
15 Apr 7.1 20:09:41 10° NW 20:12:00 13° NNW 20:14:19 10° N visible
15 Apr 7.1 23:40:26 10° N 23:41:55 11° NNE 23:43:24 10° NE visible
16 Apr 5.7 01:21:02 10° NNW 01:25:50 33° NE 01:30:37 10° ESE visible
16 Apr 4.1 03:03:04 10° NNW 03:08:13 53° WSW 03:13:23 10° S visible
16 Apr 6.9 19:32:13 10° WNW 19:35:29 16° NW 19:38:46 10° N visible
17 Apr 6.2 00:45:12 10° N 00:49:31 24° NE 00:53:51 10° E visible
17 Apr 3.9 02:26:58 10° NNW 02:32:17 80° WSW 02:37:37 10° SSE visible
18 Apr 6.6 00:09:26 10° N 00:13:07 19° NE 00:16:49 10° E visible
18 Apr 4.3 01:50:57 10° NNW 01:56:16 71° ENE 02:01:35 10° SSE visible
18 Apr 5.2 03:33:52 10° NW 03:37:54 22° W 03:41:56 10° SSW visible
18 Apr 6.8 23:33:47 10° N 23:36:39 14° NNE 23:39:31 10° ENE visible
19 Apr 4.9 01:15:00 10° NNW 01:20:09 49° ENE 01:25:19 10° SE visible
19 Apr 4.7 02:57:25 10° NW 03:02:09 33° WSW 03:06:53 10° SSW visible
19 Apr 7.0 19:27:57 10° NW 19:30:10 12° NNW 19:32:22 10° N visible
19 Apr 6.9 22:58:23 10° N 23:00:05 11° NNE 23:01:47 10° NE visible
20 Apr 5.5 00:39:07 10° NNW 00:43:57 34° NE 00:48:48 10° ESE visible
20 Apr 4.2 02:21:10 10° NNW 02:26:19 50° WSW 02:30:48 13° S visible
21 Apr 6.0 00:03:16 10° N 00:07:40 25° NE 00:12:03 10° E visible
21 Apr 3.9 01:45:04 10° NNW 01:50:23 76° WSW 01:54:18 19° SSE visible
21 Apr 5.7 03:29:00 10° WNW 03:31:38 14° W 03:34:16 10° WSW visible
21 Apr 6.4 23:27:30 10° N 23:31:16 19° NE 23:35:04 10° E visible
